Location: Santa Maria di Sala
(45.5070°N, 12.0300°E)
Time: 08:20:44
(UTC+02:00)

STRAND 1 - Pass Details

Date: 28 February 2024
Orbit: 764 x 779 km, 98.4° (Epoch: 16 April)

Event Time Altitude Azimuth Distance (km) Brightness Sun altitude
Rises 03:55:18 0° 106° (ESE) 3,259 ? -31.5°
Reaches altitude 10° 03:59:12 10° 75° (ENE) 2,337 ? -30.8°
Maximum altitude 04:01:00 12° 55° (NE) 2,212 ? -30.5°
Drops below altitude 10° 04:02:48 10° 34° (NE) 2,341 ? -30.3°
Sets 04:06:42 0° 4° (N) 3,273 ? -29.6°
